Flag for Afghanistan Weather past 2 weeks in Mazari Sharif, Afghanistan

Now
81 °F

Clear.


Feels Like: 79 °F
Forecast: 75 / 101 °F
Wind: 3 mph from South

Location: Termez Airport

Current Time: Aug 30, 2014 at 9:22:57 PM

Latest Report: Aug 30, 2014 at 8:30 PM


Visibility: 10 mi

Pressure: 29.68 "Hg

Humidity: 28%

Dew point: 45 °F

Location of Mazari SharifLocation

Historic Weather in Mazari Sharif — Graph

°F

Mazari Sharif temperature yesterday

Maximum temperature yesterday: 99 °F (at 2:30 PM)
Minimum temperature yesterday: 61 °F (at 4:30 AM)
Average temperature yesterday: 80 °F

Past Weeks' High & Low Weather Summary

 TemperatureHumidityPressure
High102 °F (Aug 19, 2:00 PM)77% (Aug 18, 5:30 AM)29.89 "Hg (Aug 18, 5:30 AM)
Low61 °F (Aug 18, 5:30 AM)9% (Aug 19, 4:30 PM)29.59 "Hg (Aug 22, 4:00 PM)
Average82 °F32%29.74 "Hg
* Reported Aug 15 7:30 PM — Aug 30 8:00 PM, Mazari Sharif, Weather by CustomWeather, © 2014

Note: Actual official high and low records may vary slightly from our data, if they occured in-between our weather recording intervals... More about our weather records

Advertising

Mazari Sharif weather history for previous 24 hours

 ConditionsComfort  
Time TempWeatherWind HumidityBarometerVisibility
8:00 PM
Aug 30
82 °FClear.6 mph28%29.68 "Hg10 mi
7:30 PM84 °FClear.3 mph23%29.65 "Hg10 mi
7:00 PM86 °FClear.3 mph24%29.65 "Hg10 mi
6:30 PM84 °FSunny.3 mph25%29.65 "Hg10 mi
6:00 PM88 °FSunny.6 mph25%29.65 "Hg10 mi
5:30 PM93 °FSunny.6 mph16%29.65 "Hg10 mi
5:00 PM95 °FSunny.6 mph14%29.65 "Hg10 mi
4:30 PM95 °FSunny.6 mph15%29.65 "Hg10 mi
4:00 PM97 °FSunny.6 mph19%29.68 "Hg10 mi
3:30 PM99 °FPassing clouds.3 mph21%29.68 "HgN/A
3:00 PM100 °FSunny.1 mph15%29.68 "Hg10 mi
2:30 PM99 °FPassing clouds.3 mph16%29.68 "HgN/A
2:00 PM97 °FPassing clouds.3 mph17%29.71 "HgN/A
1:30 PM97 °FPassing clouds.3 mph16%29.74 "HgN/A
1:00 PM97 °FPassing clouds.3 mph14%29.74 "HgN/A
12:30 PM95 °FPassing clouds.6 mph15%29.74 "HgN/A
12:00 PM93 °FPassing clouds.3 mph23%29.77 "HgN/A
11:30 AM93 °FPassing clouds.3 mph20%29.77 "HgN/A
11:00 AM90 °FPassing clouds.3 mph24%29.77 "HgN/A
10:30 AM88 °FPassing clouds.3 mph24%29.80 "HgN/A
10:00 AM86 °FSunny.1 mph29%29.80 "Hg10 mi
9:30 AM84 °FSunny.No wind33%29.80 "Hg10 mi
9:00 AM81 °FSunny.1 mph32%29.80 "Hg10 mi
8:30 AM79 °FSunny.1 mph39%29.80 "Hg10 mi
8:00 AM75 °FSunny.No wind44%29.80 "Hg10 mi
7:30 AM72 °FSunny.1 mph50%29.77 "Hg10 mi
7:00 AM68 °FSunny.1 mph64%29.77 "Hg10 mi
6:30 AM64 °FSunny.No wind68%29.77 "Hg10 mi
4:30 AM64 °FClear.No wind52%29.74 "Hg10 mi
4:00 AM66 °FClear.1 mph52%29.71 "Hg10 mi
3:30 AM66 °FClear.3 mph49%29.71 "Hg10 mi
2:30 AM68 °FClear.1 mph43%29.71 "Hg10 mi
1:30 AM72 °FClear.3 mph36%29.71 "Hg10 mi
11:30 PM
Aug 29
77 °FClear.3 mph28%29.71 "Hg10 mi
11:00 PM75 °FClear.3 mph31%29.71 "Hg10 mi
10:30 PM73 °FClear.1 mph41%29.71 "Hg10 mi
10:00 PM77 °FClear.1 mph32%29.71 "Hg10 mi
9:30 PM79 °FClear.3 mph28%29.71 "Hg10 mi
9:00 PM79 °FClear.6 mph28%29.71 "Hg10 mi
Weather by CustomWeather, © 2014

See weather overviewHow to use our weather pages